Location: Altenbürg
(48.8119°N, 10.4315°E)
Time: 01:19:14
(UTC+00:00)

Daily predictions for brighter satellites

Satellite Brightness Start Highest point End
(mag) Time Altitude Azimuth Time Altitude Azimuth Time Altitude Azimuth
SL-16 R/B 3.7 00:02:19 17° SE 00:04:55 24° ESE 00:09:21 10° NE
SL-16 R/B 3.8 00:02:07 10° SE 00:07:45 38° ENE 00:13:25 10° N
Lacrosse 5 3.1 00:07:00 25° SE 00:07:54 26° SE 00:12:07 10° ENE
USA 306 2.8 00:07:12 50° SSW 00:07:58 61° SE 00:12:05 10° ENE
Cosmos 1980 3.7 00:06:08 35° S 00:08:34 73° ESE 00:14:13 10° NNE
Cosmos 371 Rocket 3.2 00:06:52 40° SSW 00:08:40 89° ESE 00:13:33 10° NNE
Cosmos 1461 4.4 00:07:26 10° WNW 00:10:09 21° WSW 00:10:09 21° WSW
USA 307 2.9 00:11:14 48° S 00:11:59 57° SE 00:16:07 10° ENE
Cosmos 2333 Rocket 3.7 00:07:16 11° WSW 00:12:01 31° NW 00:17:05 10° NNE
Meteor 2-10 Rocket 3.7 00:08:06 10° N 00:13:49 80° ENE 00:16:52 28° SSE
ATLAS CENTAUR R/B 3.9 00:12:47 10° W 00:13:49 11° W 00:13:49 11° W
ASTEX 1 4.3 00:11:28 10° N 00:15:59 38° WNW 00:18:02 26° WSW
Cosmos 1709 Rocket 3.9 00:10:03 10° N 00:16:13 84° W 00:19:32 29° S
Cosmos 304 Rocket 3.8 00:15:45 38° S 00:17:33 69° ESE 00:22:22 10° NNE
USA 267 3.7 00:17:02 28° S 00:19:42 40° SW 00:25:48 10° WNW
Cosmos 2084 Rocket 4.0 00:19:40 32° SE 00:20:07 33° ESE 00:23:34 10° ENE
Cosmos 2315 Rocket 4.0 00:18:32 29° S 00:22:00 83° E 00:28:25 10° N
Cosmos 1674 Rocket 4.5 00:23:08 28° WSW 00:24:39 36° WNW 00:28:41 10° N
USA 229 DEB 4.2 00:19:11 10° NW 00:26:14 48° WSW 00:30:40 24° S
USA 229 4.2 00:19:17 10° NW 00:26:19 49° WSW 00:30:48 24° S
S3M 4.3 00:24:09 28° SW 00:27:33 57° WNW 00:33:50 10° N
Meteor 1-24 Rocket 4.4 00:25:26 22° SSE 00:28:43 46° E 00:33:54 10° NNE
COSMOS 2455 4.5 00:25:36 15° SSE 00:28:55 23° ESE 00:33:29 10° ENE
Cosmos 2219 Rocket 3.7 00:26:28 11° WSW 00:31:06 29° NW 00:35:58 10° NNE
Cosmos 1455 3.8 00:27:53 10° N 00:31:12 30° ENE 00:33:50 14° SE
Cosmos 2150 Rocket 4.3 00:32:33 27° SW 00:35:10 56° WNW 00:40:16 10° NNE
MOZ.5/SAFIR/RUBIN 5/SL-8 3.7 00:34:54 31° S 00:37:09 76° WSW 00:41:56 10° NNW
CZ-2D R/B 2.8 00:32:30 10° NNE 00:37:40 45° E 00:40:53 21° SSE
Cosmos 1455 Rocket 3.0 00:35:56 10° NNW 00:40:25 81° W 00:42:27 32° S
USA 308 2.7 00:40:45 32° WSW 00:42:39 86° SSE 00:46:52 10° ENE
Cosmos 1300 3.4 00:39:39 10° NNW 00:43:11 38° W 00:43:56 34° WSW
Cosmos 1125 Rocket 4.2 00:43:32 23° WSW 00:46:29 45° WNW 00:51:29 10° NNE
NOSS 0 Rocket 4.4 00:45:01 21° SW 00:49:12 54° NW 00:55:21 10° NNE
Meteor 2-5 Rocket 3.8 00:50:14 26° S 00:53:40 84° E 00:59:22 10° NNE
ERBS 2.2 00:55:13 39° WSW 00:56:09 69° NNW 00:59:12 10° NE
CZ-4C R/B 4.1 00:50:51 10° WNW 00:56:40 24° WSW 00:59:24 21° SW
Cosmos 1975 Rocket 3.2 00:56:40 31° SSW 00:58:42 65° WNW 01:03:10 10° N
Cosmos 2237 Rocket 2.7 00:56:44 21° SW 01:00:22 54° NW 01:05:59 10° NNE
Cosmos 1025 Rocket 3.0 01:00:08 30° SSW 01:02:10 73° W 01:06:29 10° N
Resurs 1-4 Rocket 2.2 00:58:20 10° NNE 01:03:37 76° ESE 01:07:01 23° S
COSMOS 2428 4.4 01:00:24 10° W 01:05:01 25° NW 01:09:41 10° NNE
SME Rocket 3.5 01:03:28 29° SSW 01:05:17 49° W 01:10:23 10° NNW
USA 305 3.1 01:02:25 18° WSW 01:05:29 67° NNW 01:09:39 10° ENE
CZ-4 R/B 3.7 01:05:43 10° NNE 01:10:24 85° ESE 01:13:13 24° SSW
Cosmos 332 Rocket 4.3 01:08:19 23° SW 01:11:03 49° WNW 01:15:44 10° NNE
YAOGAN 11 4.2 01:09:44 14° SSE 01:13:31 80° ENE 01:18:03 10° NNW
Cosmos 1943 Rocket 2.2 01:08:31 10° NNW 01:14:09 65° WSW 01:19:23 12° SSE
Lacrosse 5 rocket 1.7 01:14:37 28° SSW 01:16:15 46° SE 01:20:09 10° ENE
IDEFIX/ARIANE 42P 3.4 01:11:30 10° NNE 01:16:35 46° E 01:21:05 13° S
GP-B 4.3 01:13:35 10° NNW 01:17:26 30° WNW 01:19:29 20° WSW
ADEOS II 2.6 01:12:18 10° NNE 01:17:28 55° E 01:21:40 15° S
Cosmos 614 Rocket 4.0 01:13:58 10° NNW 01:19:12 87° ENE 01:24:26 10° SSE
UNK 3.7 01:15:35 16° SSE 01:19:18 85° W 01:23:57 10° NNW
Cosmos 2297 3.7 01:14:13 10° NNW 01:19:58 74° WSW 01:25:40 10° SSE
Thor Agena Rocket 4.2 01:15:50 10° N 01:20:52 46° WNW 01:24:18 20° SW
USA 215 4.3 01:19:31 10° ENE 01:25:41 46° N 01:31:52 10° WNW
Cosmos 1544 Rocket 3.8 01:22:35 10° NNW 01:26:53 51° W 01:29:32 21° SSW
Cosmos 1703 4.1 01:24:41 14° SSE 01:27:47 46° E 01:31:34 10° NNE
Cosmos 2278 Rocket 3.9 01:26:05 10° WNW 01:29:12 15° W 01:30:39 14° WSW
Helios 1A 3.2 01:25:33 10° SSE 01:29:45 74° ENE 01:33:59 10° N
Cosmos 2251 Rocket 3.8 01:24:54 10° NNW 01:30:10 69° ENE 01:35:27 10° SSE
Cosmos 2154 Rocket 4.0 01:24:47 10° N 01:31:10 86° W 01:37:29 10° S
EO 1 Del DPAF 3.6 01:30:18 10° NNE 01:33:45 52° ESE 01:36:19 16° S
MOS 1 Rocket 3.0 01:33:16 16° S 01:36:39 66° W 01:40:59 10° NNW
NPP 3.7 01:32:05 10° N 01:37:28 72° WNW 01:41:35 18° SSW
Cosmos 2369 Rocket 2.2 01:37:40 10° NNW 01:43:19 89° ENE 01:48:55 10° SSE
Cosmos 1656 Rocket 3.8 01:41:16 10° NNW 01:46:43 78° ENE 01:52:08 10° SSE
USA 306 3.7 01:43:37 10° W 01:47:40 48° NNW 01:51:44 10° ENE
SL-16 R/B 2.4 01:44:11 17° SW 01:48:34 63° WNW 01:54:14 10° NNE
Meteor 1-28 Rocket 3.2 01:46:34 14° S 01:49:42 60° W 01:53:24 10° NNW
Lacrosse 5 2.0 01:46:10 15° WSW 01:50:29 79° NNW 01:55:37 10° NE
SL-16 R/B 2.9 01:45:54 13° S 01:51:14 46° W 01:57:14 10° NNW
Cosmos 1726 Rocket 4.5 01:47:04 10° N 01:51:24 50° ENE 01:55:40 10° SSE
USA 307 3.7 01:47:37 10° W 01:51:42 50° NNW 01:55:48 10° ENE
Cosmos 2084 Rocket 4.4 01:56:07 11° WSW 01:59:29 34° NW 02:03:00 10° NNE
AQUA 4.2 01:56:21 10° N 02:01:00 53° WNW 02:04:57 14° SW
Cosmos 1455 3.6 02:03:39 10° NW 02:06:32 22° W 02:08:35 14° SW
Cosmos 1603 4.2 02:06:43 10° S 02:12:12 56° ESE 02:17:45 10° NE
DNEPR-1 R/B 4.4 02:08:48 10° S 02:12:47 42° ESE 02:17:11 10° NE
Cosmos 2228 3.3 02:09:49 10° NNW 02:14:04 51° W 02:18:14 10° S
Cosmos 407 Rocket 3.6 02:08:47 10° NNW 02:14:09 90° ENE 02:19:25 10° SSE
COSMOS 2455 3.0 02:08:44 13° SW 02:14:15 76° NW 02:20:19 10° NNE
Cosmos 1271 Rocket 3.6 02:11:21 10° NNW 02:14:45 31° W 02:18:01 11° SSW
Cosmos 2218 Rocket 4.3 02:09:56 10° N 02:16:11 73° E 02:22:29 10° SSE
CZ-2D R/B 3.3 02:12:52 10° N 02:17:32 31° WNW 02:22:07 10° WSW
Cosmos 1140 Rocket 3.5 02:17:05 10° NNW 02:22:21 76° WSW 02:27:35 10° SSE
USA 308 4.0 02:18:33 10° W 02:22:34 43° N 02:26:35 10° ENE
MSX 3.9 02:19:07 10° N 02:24:52 69° WNW 02:30:35 10° SSW
Cosmos 2058 Rocket 3.4 02:24:38 10° N 02:29:03 72° ENE 02:33:23 10° SSE
Cosmos 292 Rocket 4.4 02:25:27 10° SW 02:30:01 44° WNW 02:34:38 10° NNE
ERBS 4.4 02:29:30 10° WNW 02:31:55 21° NNW 02:34:21 10° NE
Cosmos 2181 Rocket 4.1 02:28:12 10° S 02:34:25 85° E 02:40:37 10° N
NOSS 3-3 (A) 4.0 02:30:27 10° SW 02:36:09 81° SE 02:42:46 10° NE
NOSS 3-3 (C) 4.0 02:30:34 10° SW 02:36:14 81° SE 02:42:51 10° NE
Cosmos 864 Rocket 4.5 02:33:07 10° N 02:39:19 82° W 02:45:26 10° S
Genesis I 3.4 02:36:39 10° NW 02:40:37 51° WSW 02:44:29 10° SSE
Cosmos 1943 3.3 02:36:50 10° SSW 02:42:33 82° WNW 02:48:17 10° NNE
Resurs 1-4 Rocket 3.8 02:39:10 10° NNW 02:42:52 20° WNW 02:46:34 10° WSW
USA 305 4.2 02:41:33 10° WNW 02:45:30 40° N 02:49:28 10° ENE
DEBRIS 3.5 02:35:50 10° WNW 02:45:39 69° SSW 02:48:47 10° ESE
Cosmos 2237 Rocket 4.4 02:42:36 10° WNW 02:45:48 15° NNW 02:49:02 10° N
Meteor 1-11 4.5 02:40:30 10° S 02:46:18 80° E 02:52:06 10° NNE
